Timeline UpdatesTrip UpdatesNews PostsPvt PostsTravel TipsAdmin PostsConv PostsFollowed PostsChat RequestsBlog PostsPNR Posts

Disclaimer
Search
 
 
Fri Apr 25, 2014 09:49:06 ISTHomeTrainsΣChainsAtlasPNRForumGalleryNewsFAQTripsMembersLoginFeedback
No Recent News for this Train
Other Trains in the News **new
Latest...
.
Thu Apr 24, 2014 (09:39PM)
⇐ Return Journey: Train# 18238

18237/Chhattisgarh Express

Dec 31 2013 (1:38PM)
Change Departure Station:
Change Arrival Station:
Post a Train Travel TipPost a Train Travel Tip **new
Post a Comment/Question/Picture/VideoPost a Comment/Question/Picture/Video
Inaugural Run
Sat Jan 01, 1977
Pantry/Catering
✓ Pantry Car Avbl
✓ Catering Avbl
Food is of Average Quality
Loco/Rake Reversals
NGP/Nagpur Junction (9);
RSA - Rake Sharing
58209
Rake/Coach Composition
LOCO-SP1-SLR-GS-S1-S2-S3-S4-S5-S6-S7-S8-S9-S10-PC-S11-S12-B3-B2-B1-A1-HA1-GS-SLR
Loco
BSP - NGP --- ET WAP4 NGP - NZM --- AJNI...
Read more...
WAP7 NZM - ASR ---- TKD WDP4 Author: Mahesh Gupta Entry# 295353
News    PNR    Forum    Time-Table    Availability    Fare Chart    Map    Arr/Dep History    Trips    Gallery    ΣChains    X/O    Timeline    
Travel Time: 1h 16m    2 halts    Distance: 73 km    Avg Speed: 57 km/hr
Type: Mail/Express
Zone: SECR/South East Central
Departs @ 18:02 (Avg 22m late)
Platform# ???
SMTWTFS
Dongargarh/DGG 
Arrives @ 19:18 (Avg 21m late)
Platform# ???
SMTWTFS
Gondia Junction/G 

2 halts. 7 intermediate Stations between Dongargarh and Gondia Junction

Show ALL intermediate Stations  Show Old Time-Table

#CodeStation NameX/OArrivesAvgDepartsAvgHaltPFDay#KmSpeedElevZoneAddress
1BSPBilaspur Junction (8)  -14:15+231-209.452271mSECRBilaspur, Chhattisgarh
2BYLBelha  14:33+614:35+62m--1-193.880269mSECRCollege Road, Chhattisgarh
3BYTBhatapara (4)X  14:58+1015:00+102m--1-163.277270mSECRBanjari Road, Chhattisgarh
4HNHathbandhX  15:12+1115:14+112m--1-147.871283mSECRRaipur, Chhattisgarh
5TLDTilda (3)X  15:23+1115:25+112m--1-137.151291mSECRBanjari Rd, Chhattisgarh
6RRaipur Junction (6)XO  16:10+1116:20+1010m--1-98.984297mSECRRaipur, Chhattisgarh
7BPHBBhilai Power House (3)X  16:40+616:42+62m--1-70.919312mSECRBhilai, Chhattisgarh
8DURGDurg Junction (6)X  17:10+217:15+35m11-62.087299mSECRPh: 91-788-2322059, Chhattisgarh
9RJNRaj Nandgaon (3)X  17:36+1617:38+162m--1-31.586313mSECRRajnandgaon, Chhattisgarh
10DGG»Dongargarh (2)»  18:00+2218:02+222m--10.067353mSECRDongargarh, Chhattisgarh
11SKSSalekasa (2)  18:34+2818:36+282m--135.780312mSECRRajnandgaon, Chhattisgarh
12AGNAmgaon (2)  18:47+2918:49+292m--150.547317mSECRGondia, Maharashtra
13G•Gondia Junction (7)•  19:18+2119:23+225m--173.392316mSECRGondia 441601, Maharashtra
14TROTirora (3)  19:42+3019:44+292m--1102.672282mSECRDist Gondiya, Maharashtra
15TMRTumsar Road (3)X  20:01+2720:03+272m--1122.972267mSECRBhandara, Maharashtra
16BRDBhandara Road (2)  20:18+2720:20+272m--1140.987266mSECRState Highway 252, Maharashtra
17KPKamptee (3)  20:53+2120:55+212m--1188.819290mSECRMH 441001, Maharashtra
18NGPNagpur Junction (9)X21:40+1322:05+1425m31203.183314mCRNagpur 440001, Maharashtra
19KATLKatol (2)X  22:49+2722:50+281m--1264.079415mCRKatol, Maharashtra
20NRKRNarkher Junction (3)  23:09+3123:10+331m--1289.158411mCRNarkher, Maharashtra
21PARPandhurna (2)  23:29+3223:30+341m--1307.548481mCRDistt: Chhindwara, Madhya Pradesh
22MTYMultai (2)X  00:21+2400:22+251m--2348.360762mCRMultai, Madhya Pradesh
23AMLAAmla Junction (5)XO  00:45+3301:20+3035m--2371.153733mCRAmla Distt. Betul, Madhya Pradesh
24BZUBetul (3)  01:46+2601:47+281m--2394.050644mCRBetul, Madhya Pradesh
25GDYAGhoradongri (3)XO  02:30+2202:31+241m--2429.939410mCRBetul, Madhya Pradesh
26ETItarsi Junction (7)  04:20+1104:25+175m--2500.360329mWCRItarsi 461111, Madhya Pradesh
27HBDHoshangabad (4)X  04:43+2104:45+222m--2518.450308mWCRHoshangabad, Madhya Pradesh
28ODGObaidulla Ganj  05:30+3505:32+372m22556.154450mWCRObaidullaganj Raisen Dist., Madhya Pradesh
29HBJBhopal HabibGanj (5)XO  06:05+3306:07+382m42585.716496mWCRHabibGanj, Madhya Pradesh
30BPLBhopal Junction (6)X  06:30+3206:35+335m22592.071497mWCRBhopal, Madhya Pradesh
31BHSVidisha (3)X  07:20+3107:22+312m12645.587432mWCRVidisha, Madhya Pradesh
32BAQGanj Basoda (4)X  07:49+3507:51+352m12684.846416mWCRVidisha, Madhya Pradesh
33MABAMandi Bamora (3)XO  08:28+2108:30+232m12713.323413mWCRState Highway 14, Madhya Pradesh
34BINABina Junction (5)X  09:15+509:20+85m22730.656414mWCRJn Pt - KATNI/GUNA/ BPL/JHS, Madhya Pradesh
35DUADhaura (3)X  09:57+909:58+111m--2765.277407mNCRDhaura Tanda, Madhya Pradesh
36LARLalitpur (3)  10:20+1810:22+182m32793.586373mNCRLalitpur, Uttar Pradesh
37BZYBasai (3)X  11:06+2311:08+232m22846.248287mNCR07522289600(Gate ManMob. - 9452701575), Madhya Pradesh
38BABBabina (3)  11:23+2111:25+222m22858.334285mNCRBabina, Uttar Pradesh
39JHSJhansi Junction (7)X  12:10+1212:18+178m42883.868259mNCRJhansi, Uttar Pradesh
40DAADatia (2)X  12:40+2212:42+232m12908.858264mNCRDatia, Madhya Pradesh
41SORSonagirX  12:54+2212:56+232m--2920.471211mNCRDatia, Madhya Pradesh
42DBADabra (3)X  13:12+2513:14+262m12939.269204mNCRDabra(District-Gwalior), Madhya Pradesh
43GWLGwalior Junction (4)X  13:51+3213:56+345m22981.577214mNCRGwalior, Madhya Pradesh
44BAOBanmorO  14:11+4314:13+442m--21000.868189mNCRGwalior, Madhya Pradesh
45MRAMorena (3)  14:30+4314:35+415m221020.177176mNCRMorena, Madhya Pradesh
46DHODholpur Junction (3)X  14:56+4314:58+432m121046.951177mNCRDholpur, Rajasthan
47AGCAgra Cantt. (6)XO  16:00+3716:08+418m221099.530174mNCRAgra, Uttar Pradesh
48RKMRaja Ki Mandi (4)  16:16+4616:17+471m121103.562170mNCRAgra, Uttar Pradesh
49MTJMathura Junction (10)X  17:05+4617:10+475m221153.281179mNCRMathura, Uttar Pradesh
50CHJChata (4)X  17:33+5117:34+521m221184.451185mNCRChhata, Uttar Pradesh
51KSVKosi Kalan (3)X  17:46+5217:47+541m121194.749189mNCRKosi Kalan, Uttar Pradesh
52PWLPalwal (8)  18:39+3618:40+401m--21237.167200mNRPalwal, Haryana
53BVHBallabgarh (5)  18:59+4219:00+431m--21258.340203mNRFaridabad, Haryana
54FDBFaridabad (4)XO  19:12+4419:13+451m221266.439206mNRFaridabad, Haryana
55NZMDelhi Hazrat Nizamuddin (7)O  19:45+5420:15+5230m121287.225209mNRNizamuddin East/Sarai KaleKhan Bus Terminal, Delhi NCT
56SBBSahibabad Junction (5)XO  20:53+4720:54+481m--21303.229209mNRGhaziabad, Uttar Pradesh
57GZBGhaziabad Junction (6)  21:08+4921:10+492m121309.966217mNRGhaziabad, Uttar Pradesh
58MUDMuradnagar (2)X  21:26+5921:28+592m--21327.561220mNRGhaziabad, Uttar Pradesh
59MDNRModinagar (2)X  21:38+1:0121:40+1:012m--21337.758221mNRGhaziabad, Uttar Pradesh
60MTCMeerut City Junction (6)  22:00+1:0122:05+595m321357.152229mNRMeerut, Uttar Pradesh
61MUTMeerut Cantt. (2)  22:10+1:0122:12+1:012m--21361.479230mNRMeerut, Uttar Pradesh
62KATKhatauli (2)  22:34+1:0322:35+1:041m221390.558239mNRKhatauli, Uttar Pradesh
63MOZMuzaffarnagar (3)  22:58+1:0323:00+1:022m221412.772247mNRMuzaffarNagar, Uttar Pradesh
64DBDDeoband (2)  23:20+5723:22+562m221436.735258mNRSaharanpur, Uttar Pradesh
65SRESaharanpur Junction (6)X  00:20+5300:30+5410m431470.962276mNRSaharanpur, Uttar Pradesh
66JUDYamunanagar-Jagadhri (3)X  00:59+1:0301:00+1:051m331501.138275mNRYamunanagar, Haryana
67JUDWJagadhri Workshop (2)X  01:08+1:0501:09+1:061m231506.171280mNRRailway Workshop Road, Haryana
68RAABarara (2)  01:27+1:0701:28+1:081m231527.340279mNRBarara, Haryana
69UMBAmbala Cantt. Junction (7)X  02:05+1:0102:15+1:0210m231552.132278mNRAmbala 133001, Haryana
70UBCAmbala City (3)X  02:29+1:0202:30+1:031m331559.772273mNRNH-1, Haryana
71RPJRajpura Junction (3)X  02:47+1:0402:48+1:061m131580.139272mNRNH-1, Punjab
72SIRSirhind Junction (3)XO  03:26+4903:28+512m131605.059271mNRSirhind, Punjab
73GVGMandi Gobindgarh (2)  03:38+5003:39+511m231614.841268mNRMandi Gobindgarh, Punjab
74KNNKhanna (3)XO  03:51+5003:52+511m131622.968269mNRNH 1, Punjab
75LDHLudhiana Junction (7)X  04:30+1:0604:40+1:2110m231665.734246mNRLudhiana 141001, Punjab
76PHRPhillaur Junction (3)O  05:03+1:1605:05+1:162m231678.875246mNRPhillaur, Punjab
77PGWPhagwara Junction (3)O  05:23+1:1705:25+1:172m231701.454245mNRPhagwara, Punjab
78JRCJalandhar Cantt. Junction (3)  05:43+1:1505:45+1:152m131717.729239mNRNear Rama Mandi, Punjab
79JUCJalandhar City Junction (5)X  05:55+1:1406:00+1:175m131722.549239mNRJalandhar 144001, Punjab
80KREKartarpur (2)X  06:18+1:1506:20+1:152m231737.249236mNRKartarpur, Punjab
81BEASBeas Junction (2)  06:46+1:1006:48+1:102m131758.680238mNRBeas, Punjab
82JNLJandiala (2)X  07:06+1:0807:08+1:082m131782.519238mNRJandiala, Punjab
83ASRAmritsar Junction (5)  08:10+34-331801.6-233mNRAmritsar 143002, Punjab
Scroll to Top
Scroll to Bottom